Sussex, NJ

7:32 PM EST on November 11, 2019 (GMT -0500)
Sussex

Weather History for KFWN - September, 2019

Change the Weather History Date:

Thursday, September 5, 2019

  Actual Average Record
Temperature  
Mean Temperature 62 °F -  
Max Temperature 73 °F 77 °F 98 °F (1973)
Min Temperature 52 °F 53 °F 38 °F (1965)
Degree Days  
Heating Degree Days 3    
Growing Degree Days 12 (Base 50)    
Moisture  
Dew Point 54 °F    
Average Humidity 75    
Maximum Humidity 93    
Minimum Humidity 53    
Precipitation  
Precipitation 0.00 in - - ()
Sea Level Pressure  
Sea Level Pressure 30.07 in    
Wind  
Wind Speed 3 mph ()    
Max Wind Speed 9 mph    
Max Gust Speed -    
Visibility 10.0 miles    
Events      
Averages and records for this station are not official NWS values.
T = Trace of Precipitation, MM = Missing Value Source: Averaged Metar Reports

Daily Weather History Graph

Daily Weather History Graph

Search for Another Location

Airport or City:

Astronomy

Sep. 05, 2019 Rise Set
Actual Time 6:28 AM EDT 7:24 PM EDT
Civil Twilight 6:00 AM EDT 7:53 PM EDT
Nautical Twilight 5:27 AM EDT 8:26 PM EDT
Astronomical Twilight 4:52 AM EDT 9:01 PM EDT
Moon 1:36 PM EDT (9/5) 11:34 PM EDT (9/5)
Length of Visible Light 13h 52m
Length of Day
12h 56m
Waxing Crescent, 45% of the Moon is Illuminated
Sep 5
Waxing Crescent
Sep 5
First Quarter
Sep 14
Full
Sep 21
Last Quarter
Sep 28
New

Hourly Weather History & Observations

Time (EDT) Temp. Dew Point Humidity Pressure Visibility Wind Dir Wind Speed Gust Speed Precip Events Conditions
12:53 AM 64.0 °F 57.0 °F 78% 30.04 in 10.0 mi NNE 6.9 mph - N/A   Clear
1:53 AM 63.0 °F 55.0 °F 75% 30.05 in 10.0 mi North 3.5 mph - N/A   Clear
2:53 AM 57.9 °F 54.0 °F 87% 30.04 in 10.0 mi Calm Calm - N/A   Clear
3:53 AM 57.9 °F 53.1 °F 84% 30.06 in 10.0 mi Calm Calm - N/A   Clear
4:53 AM 54.0 °F 52.0 °F 93% 30.06 in 10.0 mi Calm Calm - N/A   Clear
5:53 AM 53.1 °F 51.1 °F 93% 30.08 in 10.0 mi Calm Calm - N/A   Clear
6:53 AM 52.0 °F 50.0 °F 93% 30.09 in 10.0 mi Calm Calm - N/A   Clear
7:53 AM 55.0 °F 53.1 °F 93% 30.11 in 10.0 mi Calm Calm - N/A   Clear
8:53 AM 63.0 °F 55.9 °F 78% 30.12 in 10.0 mi NE 6.9 mph - N/A   Clear
9:53 AM 64.0 °F 53.1 °F 67% 30.13 in 10.0 mi NNE 9.2 mph - N/A   Clear
10:53 AM 68.0 °F 53.1 °F 59% 30.12 in 10.0 mi NNE 9.2 mph - N/A   Clear
11:53 AM 69.1 °F 52.0 °F 54% 30.11 in 10.0 mi Variable 3.5 mph - N/A   Clear
12:53 PM 70.0 °F 54.0 °F 57% 30.11 in 10.0 mi East 5.8 mph - N/A   Clear
1:53 PM 71.1 °F 53.1 °F 53% 30.09 in 10.0 mi Variable 3.5 mph - N/A   Clear
2:53 PM 72.0 °F 54.0 °F 53% 30.07 in 10.0 mi ENE 4.6 mph - N/A   Clear
3:53 PM 72.0 °F 55.0 °F 55% 30.06 in 10.0 mi East 3.5 mph - N/A   Clear
4:53 PM 72.0 °F 55.0 °F 55% 30.05 in 10.0 mi East 3.5 mph - N/A   Clear
5:53 PM 70.0 °F 55.9 °F 61% 30.05 in 10.0 mi East 3.5 mph - N/A   Clear
6:53 PM 66.9 °F 57.9 °F 73% 30.05 in 10.0 mi Calm Calm - N/A   Clear
7:53 PM 63.0 °F 57.0 °F 81% 30.06 in 10.0 mi Calm Calm - N/A   Clear
8:53 PM 61.0 °F 57.0 °F 87% 30.07 in 10.0 mi Calm Calm - N/A   Clear
9:53 PM 57.9 °F 55.9 °F 93% 30.06 in 10.0 mi Calm Calm - N/A   Clear
10:53 PM 57.9 °F 55.9 °F 93% 30.06 in 10.0 mi Calm Calm - N/A   Clear
11:53 PM 57.0 °F 55.0 °F 93% 30.05 in 10.0 mi Calm Calm - N/A   Clear